Wind_Speed
43 43 43 45 49 50 51 50 50 48 47 45 42 42 41 41 42 46 44 41 44 45 43 46 42 42 37 37 32 27 25 19 19 18 15 12 11 8 14 14 7 17 29 30 30
45 48 48 48 47 48 51 52 52 50 50 49 46 45 42 41 41 46 46 44 45 47 46 48 47 43 43 40 36 31 27 25 22 25 22 18 13 7 14 10 14 11 20 24 27
44 45 50 51 52 52 50 52 54 54 52 51 50 49 46 44 43 46 47 47 47 48 51 50 52 47 48 44 40 39 32 28 30 25 26 23 17 10 8 7 18 13 16 16 26
46 50 48 53 56 54 54 53 53 56 56 54 54 54 51 48 44 46 47 48 49 49 52 53 55 53 51 49 44 42 37 34 30 31 30 26 21 12 7 15 19 9 10 22 21
48 55 54 52 53 59 56 54 55 55 56 57 57 57 56 53 50 47 48 49 51 51 51 55 57 58 53 54 52 47 44 37 36 35 32 27 20 12 11 12 22 11 11 17 17
46 54 49 53 46 55 59 56 54 55 58 58 59 59 59 57 59 53 52 52 53 53 52 53 58 62 58 58 55 51 46 43 39 37 33 31 22 21 17 17 14 8 7 15 14
57 47 45 44 44 46 56 59 58 55 55 58 60 59 61 61 63 60 58 56 55 54 54 54 52 64 67 63 61 59 45 52 43 37 35 34 27 22 22 18 17 14 18 20 19
65 46 36 35 39 40 46 54 58 61 59 58 60 61 59 64 66 66 63 60 58 58 58 56 55 56 70 67 67 63 56 53 50 40 37 37 30 26 24 21 19 19 16 23 25
66 44 34 35 40 45 46 50 53 56 59 59 61 62 59 64 68 70 68 65 62 60 60 58 58 56 69 74 69 66 60 55 51 48 42 38 31 29 26 21 22 14 22 10 5
63 48 36 33 40 45 50 50 52 51 51 56 59 60 62 63 66 71 72 71 68 64 62 63 61 59 59 75 71 69 65 58 51 44 46 43 37 31 29 27 26 25 18 13 12
67 43 37 30 31 41 45 45 52 51 52 49 52 56 56 63 66 70 75 75 73 69 67 66 64 58 57 66 80 73 70 64 57 43 48 47 43 38 32 29 28 29 31 26 14
68 46 35 27 27 31 37 39 44 50 50 52 51 51 52 60 65 70 74 76 77 75 72 68 64 63 62 62 78 76 71 67 60 60 44 50 43 44 38 32 33 30 26 27 20
73 50 33 25 26 28 31 34 39 41 45 46 51 51 56 60 63 66 71 76 80 80 76 72 71 68 64 62 69 75 72 67 67 64 51 52 32 44 45 40 39 38 29 28 27
77 57 27 20 24 27 28 30 35 37 42 46 51 54 56 62 61 63 66 73 78 82 81 78 76 71 67 64 62 73 81 73 67 69 66 56 62 49 47 43 40 38 30 32 32
75 63 43 20 18 26 33 38 40 42 47 47 54 54 60 63 67 66 68 70 74 82 85 84 80 75 69 65 66 69 80 80 76 70 71 68 56 54 48 47 45 43 43 33 31
75 62 46 34 31 36 42 46 49 55 59 57 62 65 64 66 70 69 69 71 75 80 86 88 86 80 74 71 71 72 78 79 79 74 71 69 67 61 43 42 53 51 50 41 37
76 60 43 39 45 50 46 41 45 55 65 68 72 76 75 72 71 71 72 73 73 73 83 91 89 83 80 77 77 74 70 74 78 75 71 72 69 66 51 42 39 60 57 50 43
77 62 51 49 53 51 40 33 34 42 47 64 73 75 79 81 77 75 77 74 75 74 82 88 92 88 86 82 79 75 72 68 73 75 74 75 75 63 58 36 25 48 57 44 48
75 64 56 55 59 49 34 26 29 36 35 46 53 72 82 83 82 81 79 80 82 83 82 88 92 97 95 90 85 76 74 68 74 78 81 85 71 64 62 72 42 44 47 47 34
73 67 59 56 59 51 37 15 21 25 27 36 45 55 72 83 84 83 86 85 86 84 79 87 89 97 96 92 83 80 79 79 75 81 84 85 77 76 74 76 79 63 53 53 58
73 68 59 57 57 52 42 28 16 21 23 30 38 48 54 63 76 89 94 86 90 80 81 85 83 92 99 94 92 86 83 82 82 79 80 83 83 82 73 84 79 76 70 64 57
78 63 60 57 54 49 38 28 19 17 23 28 33 39 46 55 61 70 81 86 87 79 83 84 89 94 100 99 96 93 91 92 88 79 82 81 86 81 81 89 82 80 77 69 59
72 62 57 53 56 53 43 26 17 14 21 28 35 37 43 50 57 64 70 73 76 81 82 83 85 88 96 102 99 93 92 92 87 90 91 86 86 86 90 91 86 81 77 71 66
70 54 51 50 50 50 40 27 15 9 17 25 33 37 43 49 53 56 56 59 68 75 79 81 86 93 101 108 107 103 99 95 91 91 91 97 90 89 89 89 88 84 81 77 72
54 48 46 47 47 50 36 28 16 7 13 22 32 38 40 47 52 55 56 60 64 69 77 80 87 95 98 103 106 104 103 102 94 94 105 92 93 84 81 80 79 81 83 81 78
49 41 43 47 48 51 45 30 20 8 8 17 29 35 39 42 46 55 56 59 61 64 71 78 85 91 95 101 102 107 108 100 97 99 107 103 96 91 84 76 79 78 79 78 78
44 37 40 44 47 53 50 37 25 14 6 11 20 31 36 42 46 50 55 58 59 63 65 70 80 86 94 101 106 107 106 103 101 103 111 103 98 96 86 88 82 82 82 81 79
Wind_Direction
271 260 257 259 257 255 252 248 245 240 240 238 234 232 233 231 229 227 226 223 221 217 219 217 211 208 208 197 192 179 189 188 196 190 208 197 207 267 227 298 338 353 350 353 2
281 275 269 259 250 251 250 247 244 242 238 235 234 232 231 233 228 224 225 223 221 218 217 218 215 210 206 201 192 188 194 196 200 206 202 194 191 188 240 281 271 353 341 344 7
297 284 269 264 259 251 243 245 244 241 239 235 232 231 230 229 230 222 222 223 220 219 216 216 216 211 205 204 196 195 197 195 202 207 210 199 203 198 226 239 260 306 328 22 4
296 291 285 266 256 253 249 239 239 241 237 235 232 229 226 226 228 224 220 220 219 217 218 214 217 213 207 203 199 200 201 199 206 202 203 203 203 211 207 243 241 280 326 350 3
302 292 288 283 261 249 249 245 239 236 236 234 231 228 226 221 225 224 221 218 216 217 218 215 216 216 210 206 203 205 204 204 209 202 200 201 203 170 208 211 233 254 310 308 335
307 304 292 280 269 252 245 244 240 238 236 231 231 228 225 221 220 219 222 218 216 215 216 216 215 214 212 209 207 208 209 207 207 207 204 202 197 186 219 217 241 261 287 268 328
324 305 293 276 267 254 245 243 242 241 239 236 228 227 225 221 220 219 220 220 216 214 215 216 216 215 213 211 208 204 210 210 207 212 207 207 206 208 223 234 240 244 285 248 335
338 315 294 273 258 251 247 246 247 246 245 240 234 226 224 225 220 218 219 219 218 214 213 215 216 215 214 213 211 209 211 208 208 208 211 210 204 212 224 224 234 245 250 287 283
337 323 299 265 256 250 246 247 247 245 246 243 237 230 223 224 223 218 218 218 218 216 213 213 216 217 215 214 213 213 213 212 210 211 212 213 211 216 219 218 215 227 251 229 270
344 328 299 283 255 251 249 249 248 248 244 240 239 233 226 222 223 220 217 217 218 217 215 214 215 216 217 216 215 214 213 215 211 225 213 215 216 218 216 220 214 211 239 252 258
343 329 314 294 271 258 252 253 250 247 244 239 234 230 228 223 221 221 218 217 217 217 217 214 213 215 216 215 215 214 213 212 208 210 210 215 220 221 219 216 212 217 232 252 278
350 337 319 295 280 267 260 258 254 251 247 241 237 230 226 226 223 221 219 216 216 217 217 215 214 214 216 217 215 215 215 213 210 218 220 221 227 227 221 213 218 231 234 245 261
353 344 325 294 279 266 261 259 259 252 245 236 236 231 224 225 225 222 220 216 217 216 216 215 215 213 213 217 214 215 216 216 218 217 209 212 217 229 221 223 214 226 241 250 252
354 353 332 297 281 275 262 260 256 248 240 233 228 228 227 226 224 226 223 218 216 217 215 216 216 215 213 214 213 214 216 216 215 219 218 220 216 223 225 225 230 229 219 232 247
352 353 349 325 294 279 267 262 253 245 239 230 228 228 225 223 222 225 225 222 218 216 216 216 216 215 213 212 215 215 216 216 219 220 220 221 220 221 229 230 235 233 213 224 239
350 350 347 328 307 293 282 271 257 245 236 229 224 222 225 226 223 223 225 224 220 215 216 216 216 214 212 212 215 217 215 216 219 221 223 224 226 228 226 240 236 235 227 222 230
348 346 338 321 319 312 300 280 261 246 237 234 225 223 220 222 223 222 223 222 225 220 214 217 215 214 214 213 214 214 217 215 218 220 222 226 226 227 219 227 245 231 231 228 223
349 348 341 333 329 325 313 290 263 249 238 231 230 232 228 223 223 223 224 225 224 222 212 216 214 214 215 213 215 213 217 215 218 217 219 224 224 223 222 197 190 218 222 228 239
348 348 342 340 335 333 320 291 265 247 234 231 226 224 227 228 225 224 224 224 225 225 215 215 214 214 213 213 213 212 214 216 217 217 216 221 220 216 221 220 222 222 227 213 205
347 347 342 344 341 340 334 313 276 255 230 225 222 219 221 220 222 226 227 227 227 222 219 216 216 215 214 215 213 212 214 217 219 218 219 220 216 216 211 217 224 229 219 222 228
347 344 343 347 348 344 335 329 294 260 233 223 219 219 217 215 221 220 223 224 227 223 226 219 216 215 215 214 214 210 213 217 220 220 221 221 220 222 217 222 221 224 229 236 234
343 341 344 347 352 349 338 330 311 254 233 224 219 216 213 211 212 221 221 222 223 220 221 219 213 213 215 212 214 213 213 213 215 219 226 222 219 216 215 223 227 229 231 232 229
336 339 343 347 352 354 346 333 314 245 230 218 212 210 212 211 210 210 214 215 216 216 218 218 211 213 215 213 214 213 215 219 217 219 222 224 221 218 217 222 226 227 230 231 230
335 335 338 346 353 356 350 343 325 255 223 217 216 211 208 208 208 210 209 212 215 215 217 218 214 213 213 212 211 212 215 217 215 223 226 228 225 217 222 224 225 227 230 232 231
331 333 334 344 352 359 359 353 337 286 224 211 216 214 214 212 206 208 207 210 212 213 212 214 212 212 213 214 214 214 214 216 216 219 224 227 227 224 222 226 229 229 229 230 230
325 331 332 342 352 357 4 6 358 321 243 218 211 219 218 214 218 208 207 206 211 211 215 213 214 211 212 214 214 216 217 218 219 220 227 228 227 224 222 225 230 229 230 231 232
321 330 333 343 350 354 0 5 14 2 289 227 216 215 219 220 219 217 212 210 211 213 214 219 219 214 212 213 212 214 217 217 220 223 230 227 229 227 224 227 226 231 231 232 231
Height
10886 10883 10881 10883 10885 10887 10889 10892 10897 10902 10907 10913 10920 10924 10928 10932 10937 10942 10947 10953 10958 10964 10970 10976 10982 10988 10994 10998 11004 11008 11011 11016 11018 11020 11021 11024 11023 11021 11021 11025 11023 11018 11015 11014 11012
10877 10875 10873 10871 10870 10873 10876 10879 10883 10889 10894 10901 10908 10913 10918 10922 10927 10933 10939 10944 10950 10956 10963 10969 10975 10982 10989 10995 11000 11006 11008 11012 11015 11017 11019 11022 11023 11023 11024 11024 11023 11020 11019 11017 11015
10867 10863 10860 10859 10858 10858 10860 10865 10870 10875 10881 10888 10895 10901 10908 10913 10918 10921 10930 10935 10942 10948 10955 10961 10967 10975 10983 10990 10996 10998 11002 11007 11012 11014 11016 11019 11022 11024 11023 11022 11022 11022 11020 11019 11016
10853 10848 10844 10844 10843 10843 10845 10849 10854 10861 10868 10874 10881 10889 10896 10903 10907 10914 10919 10925 10932 10939 10945 10953 10960 10967 10976 10983 10989 10993 10997 11002 11006 11010 11013 11017 11018 11021 11022 11021 11024 11022 11022 11021 11019
10840 10832 10828 10824 10825 10828 10830 10834 10839 10844 10852 10860 10867 10875 10884 10891 10896 10902 10909 10915 10921 10929 10936 10944 10952 10960 10969 10975 10981 10987 10992 10997 11002 11007 11010 11014 11016 11019 11021 11022 11023 11022 11025 11023 11021
10825 10815 10810 10805 10806 10809 10814 10819 10824 10830 10835 10843 10852 10861 10870 10879 10880 10891 10897 10904 10912 10918 10926 10934 10941 10950 10960 10967 10976 10982 10987 10992 10997 11002 11008 11011 11014 11016 11018 11020 11020 11021 11025 11023 11022
10812 10799 10792 10789 10790 10793 10798 10804 10809 10815 10820 10827 10834 10845 10855 10865 10870 10878 10884 10893 10900 10908 10915 10923 10931 10941 10948 10955 10965 10973 10977 10986 10993 10998 11004 11009 11012 11012 11015 11017 11018 11020 11023 11022 11022
10799 10786 10779 10777 10778 10780 10783 10787 10793 10799 10805 10812 10820 10829 10840 10846 10857 10864 10872 10880 10889 10897 10904 10912 10921 10928 10940 10948 10954 10964 10972 10980 10987 10995 11000 11005 11009 11010 11012 11015 11018 11020 11022 11023 11021
10786 10773 10766 10764 10765 10766 10769 10772 10776 10783 10789 10796 10804 10812 10825 10829 10841 10850 10859 10868 10876 10886 10894 10902 10908 10917 10926 10936 10946 10958 10968 10977 10983 10990 10994 11001 11004 11007 11011 11014 11017 11019 11021 11020 11021
10774 10760 10752 10747 10748 10751 10755 10759 10762 10766 10772 10779 10787 10796 10805 10816 10826 10835 10845 10854 10863 10873 10882 10889 10898 10907 10916 10929 10943 10949 10960 10970 10979 10988 10990 10995 10999 11003 11007 11012 11014 11017 11018 11019 11022
10763 10748 10738 10734 10733 10736 10740 10743 10747 10751 10756 10765 10771 10778 10788 10798 10807 10818 10829 10839 10850 10860 10868 10878 10889 10901 10905 10915 10923 10937 10950 10961 10972 10977 10981 10989 10995 10999 11003 11007 11011 11013 11016 11018 11020
10754 10739 10728 10723 10723 10724 10726 10729 10732 10737 10743 10749 10755 10765 10776 10782 10790 10803 10813 10826 10837 10844 10854 10869 10880 10884 10894 10902 10916 10929 10942 10956 10968 10971 10982 10986 10993 10994 10998 11002 11006 11010 11014 11017 11020
10748 10731 10720 10715 10714 10714 10715 10717 10719 10723 10728 10735 10741 10750 10757 10764 10776 10788 10797 10810 10820 10831 10843 10854 10860 10870 10882 10893 10906 10923 10932 10944 10948 10961 10968 10979 10979 10984 10991 10996 11001 11006 11010 11013 11017
10742 10726 10714 10708 10707 10707 10706 10706 10707 10709 10713 10721 10726 10734 10744 10749 10761 10771 10781 10793 10806 10817 10828 10839 10847 10861 10873 10885 10898 10906 10909 10927 10934 10944 10961 10969 10974 10976 10985 10991 10996 11000 11006 11009 11014
10733 10720 10711 10704 10701 10699 10698 10697 10696 10697 10697 10709 10713 10722 10728 10737 10741 10755 10765 10778 10788 10800 10814 10824 10835 10850 10864 10876 10883 10888 10898 10911 10923 10934 10945 10952 10964 10974 10979 10982 10988 10994 10999 11005 11008
10723 10710 10699 10694 10690 10686 10681 10676 10676 10677 10677 10685 10693 10700 10708 10716 10726 10739 10752 10761 10771 10783 10797 10809 10820 10835 10850 10859 10868 10873 10884 10901 10913 10921 10936 10947 10951 10962 10974 10976 10980 10987 10993 10998 11002
10715 10702 10690 10683 10675 10664 10653 10645 10642 10643 10653 10661 10668 10675 10688 10698 10710 10725 10733 10745 10757 10770 10784 10790 10808 10824 10834 10844 10851 10865 10877 10890 10900 10913 10927 10931 10942 10954 10969 10970 10970 10975 10983 10993 10997
10705 10692 10680 10670 10657 10642 10630 10622 10619 10618 10627 10632 10645 10658 10672 10680 10693 10707 10716 10731 10741 10751 10763 10773 10792 10808 10818 10831 10840 10857 10866 10882 10890 10902 10911 10915 10925 10949 10957 10970 10956 10957 10973 10986 10986
10695 10682 10670 10655 10640 10627 10616 10607 10602 10602 10609 10614 10625 10634 10643 10658 10673 10689 10701 10712 10719 10726 10743 10756 10774 10780 10793 10809 10822 10847 10858 10870 10872 10882 10887 10889 10927 10936 10948 10947 10945 10954 10967 10977 10975
10686 10673 10659 10648 10630 10613 10604 10599 10593 10593 10597 10601 10608 10616 10621 10638 10653 10671 10679 10690 10700 10714 10731 10740 10759 10771 10786 10799 10823 10833 10841 10848 10859 10862 10873 10882 10907 10914 10924 10924 10934 10943 10952 10963 10978
10679 10666 10651 10640 10624 10608 10594 10587 10587 10586 10587 10591 10597 10603 10616 10626 10636 10642 10648 10668 10675 10707 10712 10721 10744 10760 10768 10792 10800 10816 10826 10837 10845 10851 10859 10874 10890 10905 10922 10908 10923 10935 10943 10955 10968
10672 10661 10647 10633 10623 10606 10595 10580 10579 10580 10580 10583 10588 10595 10603 10612 10621 10629 10639 10652 10664 10688 10692 10700 10723 10740 10753 10768 10783 10797 10805 10811 10826 10845 10841 10858 10875 10895 10901 10893 10910 10920 10932 10946 10957
10664 10652 10640 10630 10614 10599 10589 10580 10575 10574 10575 10579 10582 10587 10595 10602 10610 10614 10624 10639 10655 10665 10678 10696 10712 10727 10737 10753 10769 10791 10797 10802 10822 10819 10817 10830 10850 10873 10876 10880 10896 10905 10917 10933 10948
10656 10646 10635 10628 10618 10605 10590 10580 10574 10571 10572 10576 10578 10582 10588 10594 10600 10610 10621 10633 10642 10657 10669 10677 10690 10697 10711 10720 10742 10757 10774 10788 10804 10808 10813 10807 10834 10852 10863 10868 10881 10895 10905 10920 10933
10649 10639 10629 10622 10616 10605 10592 10580 10573 10570 10570 10573 10575 10577 10583 10589 10593 10602 10613 10620 10631 10645 10654 10661 10669 10688 10703 10717 10734 10750 10759 10767 10788 10797 10770 10786 10819 10842 10858 10861 10874 10885 10890 10902 10913
10642 10635 10625 10616 10610 10601 10593 10582 10573 10570 10568 10570 10573 10575 10580 10586 10593 10596 10606 10613 10623 10634 10644 10651 10654 10676 10692 10706 10726 10733 10739 10766 10775 10775 10759 10774 10802 10823 10842 10855 10859 10868 10875 10884 10896
10636 10631 10622 10614 10606 10598 10588 10583 10576 10569 10567 10566 10569 10573 10577 10581 10586 10591 10599 10607 10615 10622 10632 10641 10647 10662 10675 10685 10698 10712 10729 10746 10751 10751 10736 10768 10786 10804 10828 10828 10843 10850 10857 10865 10875